Date String (YYYY-MM-DD hh:mm:ss) UTC,Instrument flags,absolute air pressure of the measurement (hPa),sample flow rate (lpm),inlet stack bypass flow (lpm),air temperature of the measurement (°C),ambient temperature measured by the external sensor (°C),aerosol sample conditioner tube jacket temperature (°C),OPC LED temperature (°C),internal box temperature (°C),relative humidity of the measurement (%),span deviation,mass concentration of particles derived from Lorenz-Mie calculation of OPC scattering (μg/m³),mass concentration of particles derived from Lorenz-Mie calculation of OPC scattering (μg/m³),mass concentration of particles derived from Lorenz-Mie calculation of OPC scattering (μg/m³)
DateTimeUTC,F1_M11,P_M11,Q1_M11,Q2_M11,T1_M11,T2_M11,T3_M11,T4_M11,T5_M11,U1_M11,ZSPAN_M11,X2_M11,X0_M11,X1_M11
2024-02-04 08:00:00,SystemResetWarning,0821.3,5.00,000.00,018.4,017.7,000.0,026.8,020.0,26.7,0000.0,0001.13,0002.21,0001.08
2024-02-04 08:01:00,SystemResetWarning,0821.3,5.00,000.00,018.4,017.7,000.0,026.8,020.0,26.7,0000.0,0001.12,0002.21,0001.06
2024-02-04 08:02:00,SystemResetWarning,0821.3,5.01,000.00,018.4,017.7,000.0,026.8,020.0,26.6,0000.0,0001.13,0002.25,0001.05
2024-02-04 08:03:00,SystemResetWarning,0821.3,5.00,000.00,018.4,017.7,000.0,026.8,020.0,26.6,0000.0,0001.16,0002.12,0001.05
2024-02-04 08:04:00,SystemResetWarning,0821.3,4.99,000.00,018.4,017.7,000.0,026.8,020.0,26.5,0000.0,0001.16,0001.59,0001.05
2024-02-04 08:05:00,SystemResetWarning,0821.2,5.00,000.00,018.4,017.7,000.0,026.8,020.0,26.6,0000.0,0001.16,0001.58,0001.04
2024-02-04 08:06:00,SystemResetWarning,0821.2,5.01,000.00,018.4,017.7,000.0,026.8,020.0,26.6,0000.0,0001.17,0001.53,0001.05
2024-02-04 08:07:00,SystemResetWarning,0821.2,5.01,000.00,018.4,017.7,000.0,026.8,020.0,26.5,0000.0,0001.17,0001.48,0001.04
2024-02-04 08:08:00,SystemResetWarning,0821.2,4.99,000.00,018.4,017.7,000.0,026.8,020.0,26.5,0000.0,0001.17,0001.47,0001.04
2024-02-04 08:09:00,SystemResetWarning,0821.2,5.00,000.00,018.4,017.7,000.0,026.8,020.0,26.5,0000.0,0001.18,0001.48,0001.05
2024-02-04 08:10:00,SystemResetWarning,0821.2,5.01,000.00,018.4,017.7,000.0,026.8,020.0,26.4,0000.0,0001.20,0001.51,0001.07
2024-02-04 08:11:00,SystemResetWarning,0821.2,5.00,000.00,018.4,017.7,000.0,026.8,020.0,26.4,0000.0,0001.21,0001.49,0001.08
2024-02-04 08:12:00,SystemResetWarning,0821.2,4.99,000.00,018.4,017.7,000.0,026.8,020.0,26.5,0000.0,0001.25,0001.58,0001.10
2024-02-04 08:13:00,SystemResetWarning,0821.2,4.99,000.00,018.4,017.7,000.0,026.8,020.0,26.5,0000.0,0001.26,0001.58,0001.11
2024-02-04 08:14:00,SystemResetWarning,0821.2,5.00,000.00,018.4,017.7,000.0,026.8,020.0,26.4,0000.0,0001.22,0001.48,0001.11
2024-02-04 08:15:00,SystemResetWarning,0821.3,5.02,000.00,018.4,017.7,000.0,026.8,020.0,26.4,0000.0,0001.22,0001.49,0001.11
2024-02-04 08:16:00,SystemResetWarning,0821.2,5.00,000.00,018.4,017.7,000.0,026.8,020.0,26.4,0000.0,0001.23,0001.52,0001.12
2024-02-04 08:17:00,SystemResetWarning,0821.2,4.98,000.00,018.4,017.7,000.0,026.8,020.0,26.4,0000.0,0001.23,0001.52,0001.13
2024-02-04 08:18:00,SystemResetWarning,0821.2,5.00,000.00,018.4,017.7,000.0,026.8,020.0,26.3,0000.0,0001.25,0001.55,0001.14
2024-02-04 08:19:00,SystemResetWarning,0821.2,5.01,000.00,018.4,017.7,000.0,026.8,020.0,26.2,0000.0,0001.29,0001.62,0001.17
2024-02-04 08:20:00,SystemResetWarning,0821.3,5.00,000.00,018.3,017.7,000.0,026.8,020.0,26.1,0000.0,0001.33,0001.69,0001.20
2024-02-04 08:21:00,SystemResetWarning,0821.3,5.00,000.00,018.3,017.7,000.0,026.8,020.0,26.2,0000.0,0001.34,0001.70,0001.21
2024-02-04 08:22:00,SystemResetWarning,0821.3,4.99,000.00,018.3,017.7,000.0,026.8,020.0,26.1,0000.0,0001.35,0001.74,0001.21
2024-02-04 08:23:00,SystemResetWarning,0821.3,4.99,000.00,018.3,017.7,000.0,026.8,020.0,26.0,0000.0,0001.34,0001.78,0001.21
2024-02-04 08:24:00,SystemResetWarning,0821.3,5.01,000.00,018.3,017.7,000.0,026.8,020.0,26.0,0000.0,0001.32,0001.75,0001.21
2024-02-04 08:25:00,SystemResetWarning,0821.3,5.00,000.00,018.3,017.7,000.0,026.8,020.0,25.9,0000.0,0001.34,0001.77,0001.22
2024-02-04 08:26:00,SystemResetWarning,0821.3,4.99,000.00,018.3,017.7,000.0,026.8,020.0,25.7,0000.0,0001.38,0001.82,0001.26
2024-02-04 08:27:00,SystemResetWarning,0821.3,4.99,000.00,018.3,017.7,000.0,026.8,020.0,25.7,0000.0,0001.41,0001.87,0001.29
2024-02-04 08:28:00,SystemResetWarning,0821.3,4.99,000.00,018.3,017.7,000.0,026.8,020.0,25.6,0000.0,0001.44,0001.91,0001.32
2024-02-04 08:29:00,SystemResetWarning,0821.3,5.00,000.00,018.3,017.7,000.0,026.8,020.0,25.6,0000.0,0001.45,0001.92,0001.33
2024-02-04 08:30:00,SystemResetWarning,0821.4,5.02,000.00,018.3,017.7,000.0,026.8,020.0,25.5,0000.0,0001.45,0001.93,0001.34
2024-02-04 08:31:00,SystemResetWarning,0821.4,5.00,000.00,018.3,017.7,000.0,026.8,020.0,25.4,0000.0,0001.44,0001.91,0001.33
2024-02-04 08:32:00,SystemResetWarning,0821.4,4.99,000.00,018.3,017.6,000.0,026.8,020.0,25.2,0000.0,0001.49,0002.00,0001.36
2024-02-04 08:33:00,SystemResetWarning,0821.4,4.99,000.00,018.3,017.6,000.0,026.8,020.0,25.2,0000.0,0001.55,0002.13,0001.39
2024-02-04 08:34:00,SystemResetWarning,0821.4,5.00,000.00,018.3,017.6,000.0,026.8,020.0,25.2,0000.0,0001.57,0002.12,0001.42
2024-02-04 08:35:00,SystemResetWarning,0821.4,5.02,000.00,018.3,017.6,000.0,026.8,020.0,25.1,0000.0,0001.57,0002.07,0001.43
2024-02-04 08:36:00,SystemResetWarning,0821.4,5.00,000.00,018.3,017.6,000.0,026.8,020.0,25.1,0000.0,0001.59,0002.09,0001.44
2024-02-04 08:37:00,SystemResetWarning,0821.4,5.00,000.00,018.3,017.6,000.0,026.8,020.0,25.0,0000.0,0001.59,0002.10,0001.45
2024-02-04 08:38:00,SystemResetWarning,0821.3,5.00,000.00,018.3,017.6,000.0,026.8,020.0,24.8,0000.0,0001.60,0002.10,0001.46
2024-02-04 08:39:00,SystemResetWarning,0821.4,5.00,000.00,018.3,017.6,000.0,026.8,020.0,24.6,0000.0,0001.60,0002.10,0001.46
2024-02-04 08:40:00,SystemResetWarning,0821.5,4.99,000.00,018.3,017.6,000.0,026.8,020.0,24.5,0000.0,0001.59,0002.10,0001.45
2024-02-04 08:41:00,SystemResetWarning,0821.4,5.00,000.00,018.3,017.6,000.0,026.8,020.0,24.4,0000.0,0001.59,0002.08,0001.45
2024-02-04 08:42:00,SystemResetWarning,0821.4,4.99,000.00,018.3,017.6,000.0,026.8,020.0,24.3,0000.0,0001.58,0002.08,0001.44
2024-02-04 08:43:00,SystemResetWarning,0821.6,5.00,000.00,018.3,017.6,000.0,026.8,020.0,24.4,0000.0,0001.56,0002.03,0001.44
2024-02-04 08:44:00,SystemResetWarning,0822.0,5.01,000.00,018.3,017.6,000.0,026.8,020.0,24.4,0000.0,0001.51,0001.89,0001.42
2024-02-04 08:45:00,SystemResetWarning,0821.7,5.01,000.00,018.3,017.6,000.0,026.8,020.0,24.3,0000.0,0001.50,0001.86,0001.42
2024-02-04 08:46:00,SystemResetWarning,0822.0,4.99,000.00,018.3,017.6,000.0,026.8,020.0,24.2,0000.0,0001.52,0001.89,0001.43
2024-02-04 08:47:00,SystemResetWarning,0822.0,5.00,000.00,018.3,017.6,000.0,026.8,020.0,24.1,0000.0,0001.53,0001.90,0001.43
2024-02-04 08:48:00,SystemResetWarning,0822.0,4.99,000.00,018.3,017.6,000.0,026.8,020.0,24.0,0000.0,0001.52,0001.92,0001.42
2024-02-04 08:49:00,SystemResetWarning,0822.0,5.00,000.00,018.3,017.6,000.0,026.8,020.0,23.7,0000.0,0001.52,0001.93,0001.41
2024-02-04 08:50:00,SystemResetWarning,0821.9,5.02,000.00,018.3,017.6,000.0,026.8,020.0,23.7,0000.0,0001.53,0001.92,0001.40
2024-02-04 08:51:00,SystemResetWarning,0822.1,4.99,000.00,018.3,017.6,000.0,026.8,020.0,23.8,0000.0,0001.56,0001.98,0001.40
2024-02-04 08:52:00,SystemResetWarning,0822.0,5.00,000.00,018.3,017.6,000.0,026.8,020.0,23.8,0000.0,0001.55,0001.95,0001.41
2024-02-04 08:53:00,SystemResetWarning,0821.7,4.99,000.00,018.3,017.6,000.0,026.8,020.0,23.6,0000.0,0001.53,0001.93,0001.40
2024-02-04 08:54:00,SystemResetWarning,0821.6,4.99,000.00,018.3,017.6,000.0,026.8,020.0,23.7,0000.0,0001.53,0001.93,0001.40
2024-02-04 08:55:00,SystemResetWarning,0821.6,5.00,000.00,018.3,017.6,000.0,026.9,020.0,23.6,0000.0,0001.52,0001.92,0001.39
2024-02-04 08:56:00,SystemResetWarning,0821.7,5.01,000.00,018.3,017.6,000.0,026.8,020.0,23.6,0000.0,0001.51,0001.92,0001.38
2024-02-04 08:57:00,SystemResetWarning,0821.6,4.99,000.00,018.3,017.6,000.0,026.8,020.0,23.5,0000.0,0001.51,0001.94,0001.37
2024-02-04 08:58:00,SystemResetWarning,0821.6,4.99,000.00,018.3,017.6,000.0,026.8,020.0,23.4,0000.0,0001.50,0001.92,0001.36
2024-02-04 08:59:00,SystemResetWarning,0821.7,5.02,000.00,018.3,017.6,000.0,026.8,020.0,23.3,0000.0,0001.49,0001.90,0001.36
